Hourly Data Report for October 01, 2017

All times are specified in Local Standard Time (LST). Add 1 hour to adjust for Daylight Saving Time where and when it is observed.

SANDSPIT
BRITISH COLUMBIA

53°15'15.000" N
131°48'50.000" W
6.40 m
1057052
71111
YZP

Download Data

Hourly Data (October 2017)
Hourly Data Report for October 1, 2017
Temp Definition
°C
Dew Point Temp Definition
°C
Rel Hum Definition
%
Wind Dir Definition
10's deg

Wind Spd Definition
km/h
Visibility Definition
km
Stn Press Definition
kPa
Hmdx Definition


Wind Chill Definition


Weather Definition


TIME
00:00 Legend Double Dagger 11.9 7.0 72 29 24 16.1 102.39     LegendNANA
01:00 Legend Double Dagger 12.0 6.8 70 29 26 16.1 102.41     LegendNANA
02:00 Legend Double Dagger 11.7 6.6 71 31 26 16.1 102.45     LegendNANA
03:00 Legend Double Dagger 11.9 6.7 70 29 26 16.1 102.51     LegendNANA
04:00 Legend Double Dagger 11.5 6.5 71 31 21 16.1 102.55     LegendNANA
05:00 Legend Double Dagger 11.4 6.0 69 29 21 16.1 102.58     LegendNANA
06:00 Legend Double Dagger 11.5 6.7 72 30 21 16.1 102.63     LegendNANA
07:00 Legend Double Dagger 11.1 6.9 75 28 18 16.1 102.63     LegendNANA
08:00 Legend Double Dagger 12.1 7.2 72 30 21 16.1 102.67     LegendNANA
09:00 Legend Double Dagger 13.0 6.9 66 28 18 16.1 102.70     LegendNANA
10:00 Legend Double Dagger 14.0 7.1 63 31 26 16.1 102.71     LegendNANA
11:00 Legend Double Dagger 14.7 7.8 63 33 26 16.1 102.71     LegendNANA
12:00 Legend Double Dagger 15.3 8.2 62 33 21 16.1 102.73     LegendNANA
13:00 Legend Double Dagger 15.9 8.5 61 34 22 16.1 102.74     LegendNANA
14:00 Legend Double Dagger 15.6 8.2 61 34 28 16.1 102.72     LegendNANA
15:00 Legend Double Dagger 15.7 9.6 67 36 22 16.1 102.71     LegendNANA
16:00 Legend Double Dagger 15.5 10.1 70 1 21 16.1 102.70     LegendNANA
17:00 Legend Double Dagger 15.1 9.9 71 35 24 16.1 102.71     LegendNANA
18:00 Legend Double Dagger 14.0 9.1 72 34 30 16.1 102.73     LegendNANA
19:00 Legend Double Dagger 13.1 8.1 72 34 32 16.1 102.77     LegendNANA
20:00 Legend Double Dagger 12.2 8.0 75 33 24 16.1 102.81     LegendNANA
21:00 Legend Double Dagger 11.5 8.1 79 33 24 16.1 102.79     LegendNANA
22:00 Legend Double Dagger 11.1 7.4 78 32 17 16.1 102.80     LegendNANA
23:00 Legend Double Dagger 11.6 6.9 73 31 24 16.1 102.80     LegendNANA

Notes on Data Quality.

Legend

  • E = Estimated
  • M = Missing
  • NA = Not Available
  • ‡ = Partner data that is not subject to review by the National Climate Archives
Date modified: